Time,TemperatureF,DewpointF,PressureIn,WindDirection,WindDirectionDegrees,WindSpeedMPH,WindSpeedGustMPH,Humidity,HourlyPrecipIn,Conditions,Clouds,dailyrainin,SoftwareType,DateUTC
2013-01-29 00:01:00,-13.9,-18.3,30.11,NW,310,0.0,0.0,80,0.00,,,0.00,LWC V2.00 B2112,2013-01-29 09:01:00,
2013-01-29 00:06:00,-13.6,-17.7,30.10,NW,310,0.0,0.0,81,0.00,,,0.00,LWC V2.00 B2112,2013-01-29 09:06:00,
2013-01-29 00:11:00,-13.2,-17.3,30.10,NW,310,0.0,0.0,81,0.00,,,0.00,LWC V2.00 B2112,2013-01-29 09:11:00,
2013-01-29 00:16:00,-13.0,-17.1,30.09,SE,137,0.0,0.0,81,0.00,,,0.00,LWC V2.00 B2112,2013-01-29 09:16:00,
2013-01-29 00:21:00,-12.7,-16.8,30.09,SE,137,0.0,0.0,81,0.00,,,0.00,LWC V2.00 B2112,2013-01-29 09:21:00,
2013-01-29 00:26:00,-12.4,-16.5,30.09,SE,137,0.0,0.0,81,0.00,,,0.00,LWC V2.00 B2112,2013-01-29 09:26:00,
2013-01-29 00:31:00,-12.1,-16.5,30.08,SE,130,0.0,0.0,80,0.00,,,0.00,LWC V2.00 B2112,2013-01-29 09:31:00,
2013-01-29 00:36:00,-12.0,-16.4,30.08,SE,130,0.0,0.0,80,0.00,,,0.00,LWC V2.00 B2112,2013-01-29 09:36:00,
2013-01-29 00:41:00,-11.9,-16.3,30.08,SE,130,0.0,0.0,80,0.00,,,0.00,LWC V2.00 B2112,2013-01-29 09:41:00,
2013-01-29 00:46:00,-11.6,-16.0,30.07,SE,130,0.0,0.0,80,0.00,,,0.00,LWC V2.00 B2112,2013-01-29 09:46:00,
2013-01-29 00:51:00,-11.5,-16.2,30.07,NW,316,0.0,0.0,79,0.00,,,0.00,LWC V2.00 B2112,2013-01-29 09:51:00,
2013-01-29 00:56:00,-11.3,-16.0,30.07,NE,49,0.0,0.0,79,0.00,,,0.00,LWC V2.00 B2112,2013-01-29 09:56:00,
2013-01-29 01:01:00,-11.3,-16.0,30.06,NE,48,0.0,0.0,79,0.00,,,0.00,LWC V2.00 B2112,2013-01-29 10:01:00,
2013-01-29 01:06:00,-11.2,-15.9,30.06,ENE,59,0.0,0.0,79,0.00,,,0.00,LWC V2.00 B2112,2013-01-29 10:06:00,
2013-01-29 01:11:00,-11.2,-15.9,30.06,ENE,57,0.0,0.0,79,0.00,,,0.00,LWC V2.00 B2112,2013-01-29 10:11:00,
2013-01-29 01:16:00,-10.9,-15.6,30.05,West,277,0.0,0.0,79,0.00,,,0.00,LWC V2.00 B2112,2013-01-29 10:16:00,
2013-01-29 01:21:00,-11.0,-15.7,30.05,West,276,0.0,0.0,79,0.00,,,0.00,LWC V2.00 B2112,2013-01-29 10:21:00,
2013-01-29 01:26:00,-11.1,-15.8,30.05,West,275,0.0,0.0,79,0.00,,,0.00,LWC V2.00 B2112,2013-01-29 10:26:00,
2013-01-29 01:31:00,-10.9,-15.6,30.05,East,97,0.0,0.0,79,0.00,,,0.00,LWC V2.00 B2112,2013-01-29 10:31:00,
2013-01-29 01:36:00,-10.8,-15.5,30.04,East,97,0.0,0.0,79,0.00,,,0.00,LWC V2.00 B2112,2013-01-29 10:36:00,
2013-01-29 01:41:00,-10.7,-15.4,30.04,East,96,0.0,0.0,79,0.00,,,0.00,LWC V2.00 B2112,2013-01-29 10:41:00,
2013-01-29 01:46:00,-10.5,-15.2,30.04,East,97,0.0,0.0,79,0.00,,,0.00,LWC V2.00 B2112,2013-01-29 10:46:00,
2013-01-29 01:51:00,-10.4,-15.1,30.03,East,97,0.0,0.0,79,0.00,,,0.00,LWC V2.00 B2112,2013-01-29 10:51:00,
2013-01-29 01:56:00,-10.2,-14.9,30.03,East,97,0.0,0.0,79,0.00,,,0.00,LWC V2.00 B2112,2013-01-29 10:56:00,
2013-01-29 02:01:00,-10.1,-14.8,30.02,NNE,17,0.0,0.0,79,0.00,,,0.00,LWC V2.00 B2112,2013-01-29 11:01:00,
2013-01-29 02:06:00,-10.1,-15.0,30.02,NNE,17,0.0,0.0,78,0.00,,,0.00,LWC V2.00 B2112,2013-01-29 11:06:00,
2013-01-29 02:11:00,-10.1,-15.0,30.02,NNE,17,0.0,0.0,78,0.00,,,0.00,LWC V2.00 B2112,2013-01-29 11:11:00,
2013-01-29 02:16:00,-10.1,-15.0,30.02,NNE,17,0.0,0.0,78,0.00,,,0.00,LWC V2.00 B2112,2013-01-29 11:16:00,
2013-01-29 02:21:00,-10.0,-14.9,30.02,NNE,17,0.0,0.0,78,0.00,,,0.00,LWC V2.00 B2112,2013-01-29 11:21:00,
2013-01-29 02:26:00,-9.7,-14.9,30.02,West,276,0.0,0.0,77,0.00,,,0.00,LWC V2.00 B2112,2013-01-29 11:26:00,
2013-01-29 02:31:00,-9.8,-15.0,30.02,West,275,0.0,0.0,77,0.00,,,0.00,LWC V2.00 B2112,2013-01-29 11:31:00,
2013-01-29 02:36:00,-9.8,-15.3,30.01,West,276,0.0,0.0,76,0.00,,,0.00,LWC V2.00 B2112,2013-01-29 11:36:00,
2013-01-29 02:41:00,-10.1,-15.5,30.01,East,97,0.0,0.0,76,0.00,,,0.00,LWC V2.00 B2112,2013-01-29 11:41:00,
2013-01-29 02:46:00,-10.1,-15.5,30.01,SSE,155,0.0,0.0,76,0.00,,,0.00,LWC V2.00 B2112,2013-01-29 11:46:00,
2013-01-29 02:51:00,-10.2,-15.6,30.01,West,273,0.0,0.0,76,0.00,,,0.00,LWC V2.00 B2112,2013-01-29 11:51:00,
2013-01-29 02:56:00,-10.4,-16.1,30.01,SSW,203,0.0,0.0,75,0.00,,,0.00,LWC V2.00 B2112,2013-01-29 11:56:00,
2013-01-29 03:01:00,-10.5,-15.9,30.00,SSW,203,0.0,0.0,76,0.00,,,0.00,LWC V2.00 B2112,2013-01-29 12:01:00,
2013-01-29 03:06:00,-10.5,-15.9,30.01,WSW,249,0.0,0.0,76,0.00,,,0.00,LWC V2.00 B2112,2013-01-29 12:06:00,
2013-01-29 03:11:00,-10.8,-16.2,30.00,WSW,249,0.0,0.0,76,0.00,,,0.00,LWC V2.00 B2112,2013-01-29 12:11:00,
2013-01-29 03:16:00,-10.9,-16.3,30.00,WSW,249,0.0,0.0,76,0.00,,,0.00,LWC V2.00 B2112,2013-01-29 12:16:00,
2013-01-29 03:21:00,-11.3,-16.7,30.00,West,261,0.0,0.0,76,0.00,,,0.00,LWC V2.00 B2112,2013-01-29 12:21:00,
2013-01-29 03:26:00,-11.6,-16.8,30.00,West,262,0.0,0.0,77,0.00,,,0.00,LWC V2.00 B2112,2013-01-29 12:26:00,
2013-01-29 03:31:00,-11.9,-17.0,29.99,West,263,0.0,0.0,77,0.00,,,0.00,LWC V2.00 B2112,2013-01-29 12:31:00,
2013-01-29 03:36:00,-11.8,-16.7,29.99,West,262,0.0,0.0,78,0.00,,,0.00,LWC V2.00 B2112,2013-01-29 12:36:00,
2013-01-29 03:41:00,-11.6,-16.5,29.99,West,263,0.0,0.0,78,0.00,,,0.00,LWC V2.00 B2112,2013-01-29 12:41:00,
2013-01-29 03:46:00,-11.5,-16.4,29.99,West,275,0.0,0.0,78,0.00,,,0.00,LWC V2.00 B2112,2013-01-29 12:46:00,
2013-01-29 03:51:00,-11.4,-16.3,29.98,WNW,287,0.0,0.0,78,0.00,,,0.00,LWC V2.00 B2112,2013-01-29 12:51:00,
2013-01-29 03:56:00,-11.3,-16.2,29.98,WNW,288,0.0,0.0,78,0.00,,,0.00,LWC V2.00 B2112,2013-01-29 12:56:00,
2013-01-29 04:01:00,-11.3,-16.2,29.98,WNW,288,0.0,0.0,78,0.00,,,0.00,LWC V2.00 B2112,2013-01-29 13:01:00,
2013-01-29 04:06:00,-11.4,-16.3,29.98,WNW,288,0.0,0.0,78,0.00,,,0.00,LWC V2.00 B2112,2013-01-29 13:06:00,
2013-01-29 04:11:00,-11.5,-16.4,29.98,WNW,288,0.0,0.0,78,0.00,,,0.00,LWC V2.00 B2112,2013-01-29 13:11:00,
2013-01-29 04:16:00,-11.3,-16.2,29.97,WNW,288,0.0,0.0,78,0.00,,,0.00,LWC V2.00 B2112,2013-01-29 13:16:00,
2013-01-29 04:21:00,-11.2,-16.1,29.97,WNW,288,0.0,0.0,78,0.00,,,0.00,LWC V2.00 B2112,2013-01-29 13:21:00,
2013-01-29 04:26:00,-11.2,-16.1,29.97,WNW,288,0.0,0.0,78,0.00,,,0.00,LWC V2.00 B2112,2013-01-29 13:26:00,
2013-01-29 04:31:00,-11.2,-16.1,29.97,WNW,288,0.0,0.0,78,0.00,,,0.00,LWC V2.00 B2112,2013-01-29 13:31:00,
2013-01-29 04:36:00,-11.2,-16.1,29.97,WNW,288,0.0,0.0,78,0.00,,,0.00,LWC V2.00 B2112,2013-01-29 13:36:00,
2013-01-29 04:41:00,-11.1,-16.0,29.96,WNW,288,0.0,0.0,78,0.00,,,0.00,LWC V2.00 B2112,2013-01-29 13:41:00,
2013-01-29 04:46:00,-10.8,-15.5,29.96,WNW,288,0.0,0.0,79,0.00,,,0.00,LWC V2.00 B2112,2013-01-29 13:46:00,
2013-01-29 04:51:00,-10.5,-15.4,29.97,WNW,288,0.0,0.0,78,0.00,,,0.00,LWC V2.00 B2112,2013-01-29 13:51:00,
2013-01-29 04:56:00,-10.2,-15.1,29.97,WNW,288,0.0,0.0,78,0.00,,,0.00,LWC V2.00 B2112,2013-01-29 13:56:00,
2013-01-29 05:01:00,-9.7,-14.9,29.96,WNW,288,0.0,0.0,77,0.00,,,0.00,LWC V2.00 B2112,2013-01-29 14:01:00,
2013-01-29 05:06:00,-9.5,-14.7,29.96,WNW,288,0.0,0.0,77,0.00,,,0.00,LWC V2.00 B2112,2013-01-29 14:06:00,
2013-01-29 05:11:00,-9.3,-14.5,29.96,WNW,288,0.0,0.0,77,0.00,,,0.00,LWC V2.00 B2112,2013-01-29 14:11:00,
2013-01-29 05:16:00,-9.1,-14.3,29.96,West,264,0.0,0.0,77,0.00,,,0.00,LWC V2.00 B2112,2013-01-29 14:16:00,
2013-01-29 05:21:00,-8.9,-14.1,29.95,North,5,0.0,0.0,77,0.00,,,0.00,LWC V2.00 B2112,2013-01-29 14:21:00,
2013-01-29 05:26:00,-8.8,-14.3,29.95,WNW,302,0.0,0.0,76,0.00,,,0.00,LWC V2.00 B2112,2013-01-29 14:26:00,
2013-01-29 05:31:00,-8.9,-14.4,29.95,WNW,302,0.0,0.0,76,0.00,,,0.00,LWC V2.00 B2112,2013-01-29 14:31:00,
2013-01-29 05:36:00,-8.9,-14.4,29.95,ENE,73,0.0,0.0,76,0.00,,,0.00,LWC V2.00 B2112,2013-01-29 14:36:00,
2013-01-29 05:41:00,-9.0,-14.5,29.95,NW,325,0.0,0.0,76,0.00,,,0.00,LWC V2.00 B2112,2013-01-29 14:41:00,
2013-01-29 05:46:00,-9.2,-14.7,29.94,NW,326,0.0,0.0,76,0.00,,,0.00,LWC V2.00 B2112,2013-01-29 14:46:00,
2013-01-29 05:51:00,-9.4,-14.9,29.94,NW,305,0.0,0.0,76,0.00,,,0.00,LWC V2.00 B2112,2013-01-29 14:51:00,
2013-01-29 05:56:00,-9.5,-15.2,29.94,NW,305,0.0,0.0,75,0.00,,,0.00,LWC V2.00 B2112,2013-01-29 14:56:00,
2013-01-29 06:01:00,-9.7,-15.4,29.94,NW,305,0.0,0.0,75,0.00,,,0.00,LWC V2.00 B2112,2013-01-29 15:01:00,
2013-01-29 06:06:00,-10.2,-16.2,29.94,NW,306,0.0,0.0,74,0.00,,,0.00,LWC V2.00 B2112,2013-01-29 15:06:00,
2013-01-29 06:11:00,-10.6,-16.3,29.94,NW,306,0.0,0.0,75,0.00,,,0.00,LWC V2.00 B2112,2013-01-29 15:11:00,
2013-01-29 06:16:00,-10.8,-16.5,29.94,NW,306,0.0,0.0,75,0.00,,,0.00,LWC V2.00 B2112,2013-01-29 15:16:00,
2013-01-29 06:21:00,-11.1,-16.8,29.94,NW,305,0.0,0.0,75,0.00,,,0.00,LWC V2.00 B2112,2013-01-29 15:21:00,
2013-01-29 06:26:00,-11.3,-17.0,29.94,NW,304,0.0,0.0,75,0.00,,,0.00,LWC V2.00 B2112,2013-01-29 15:26:00,
2013-01-29 06:31:00,-11.5,-17.2,29.94,NW,304,0.0,0.0,75,0.00,,,0.00,LWC V2.00 B2112,2013-01-29 15:31:00,
2013-01-29 06:36:00,-12.0,-17.7,29.94,NW,304,0.0,0.0,75,0.00,,,0.00,LWC V2.00 B2112,2013-01-29 15:36:00,
2013-01-29 06:41:00,-12.1,-17.7,29.94,NW,304,0.0,0.0,75,0.00,,,0.00,LWC V2.00 B2112,2013-01-29 15:41:00,
2013-01-29 06:46:00,-12.3,-17.9,29.94,NW,304,0.0,0.0,75,0.00,,,0.00,LWC V2.00 B2112,2013-01-29 15:46:00,
2013-01-29 06:51:00,-12.5,-17.9,29.94,NW,304,0.0,0.0,76,0.00,,,0.00,LWC V2.00 B2112,2013-01-29 15:51:00,
2013-01-29 06:56:00,-12.2,-17.6,29.93,WNW,303,0.0,0.0,76,0.00,,,0.00,LWC V2.00 B2112,2013-01-29 15:56:00,
2013-01-29 07:01:00,-11.8,-17.2,29.93,WNW,303,0.0,0.0,76,0.00,,,0.00,LWC V2.00 B2112,2013-01-29 16:01:00,
2013-01-29 07:06:00,-11.6,-16.8,29.93,WNW,302,0.0,0.0,77,0.00,,,0.00,LWC V2.00 B2112,2013-01-29 16:06:00,
2013-01-29 07:11:00,-11.3,-16.5,29.93,WNW,302,0.0,0.0,77,0.00,,,0.00,LWC V2.00 B2112,2013-01-29 16:11:00,
2013-01-29 07:16:00,-11.2,-16.4,29.93,WNW,302,0.0,0.0,77,0.00,,,0.00,LWC V2.00 B2112,2013-01-29 16:16:00,
2013-01-29 07:21:00,-10.8,-16.0,29.93,WNW,303,0.0,0.0,77,0.00,,,0.00,LWC V2.00 B2112,2013-01-29 16:21:00,
2013-01-29 07:26:00,-10.7,-16.1,29.93,WNW,295,0.0,0.0,76,0.00,,,0.00,LWC V2.00 B2112,2013-01-29 16:26:00,
2013-01-29 07:31:00,-10.6,-16.0,29.93,WNW,297,0.0,0.0,76,0.00,,,0.00,LWC V2.00 B2112,2013-01-29 16:31:00,
2013-01-29 07:36:00,-10.6,-16.0,29.93,WNW,296,0.0,0.0,76,0.00,,,0.00,LWC V2.00 B2112,2013-01-29 16:36:00,
2013-01-29 07:41:00,-10.4,-16.1,29.93,WNW,298,0.0,0.0,75,0.00,,,0.00,LWC V2.00 B2112,2013-01-29 16:41:00,
2013-01-29 07:46:00,-10.1,-16.1,29.93,NW,316,0.0,0.0,74,0.00,,,0.00,LWC V2.00 B2112,2013-01-29 16:46:00,
2013-01-29 07:51:00,-10.1,-16.1,29.93,NW,310,0.0,0.0,74,0.00,,,0.00,LWC V2.00 B2112,2013-01-29 16:51:00,
2013-01-29 07:56:00,-10.2,-16.4,29.93,NW,310,0.0,0.0,73,0.00,,,0.00,LWC V2.00 B2112,2013-01-29 16:56:00,
2013-01-29 08:01:00,-10.6,-16.8,29.93,NW,310,0.0,0.0,73,0.00,,,0.00,LWC V2.00 B2112,2013-01-29 17:01:00,
2013-01-29 08:06:00,-10.6,-16.6,29.93,NW,304,0.0,0.0,74,0.00,,,0.00,LWC V2.00 B2112,2013-01-29 17:06:00,
2013-01-29 08:11:00,-10.4,-16.4,29.93,WNW,302,0.0,0.0,74,0.00,,,0.00,LWC V2.00 B2112,2013-01-29 17:11:00,
2013-01-29 08:16:00,-10.4,-16.4,29.93,WNW,302,0.0,0.0,74,0.00,,,0.00,LWC V2.00 B2112,2013-01-29 17:16:00,
2013-01-29 08:21:00,-10.6,-16.6,29.93,WNW,298,0.0,0.0,74,0.00,,,0.00,LWC V2.00 B2112,2013-01-29 17:21:00,
2013-01-29 08:26:00,-10.5,-16.5,29.92,WNW,297,0.0,0.0,74,0.00,,,0.00,LWC V2.00 B2112,2013-01-29 17:26:00,
2013-01-29 08:31:00,-10.3,-16.3,29.93,WNW,297,0.0,0.0,74,0.00,,,0.00,LWC V2.00 B2112,2013-01-29 17:31:00,
2013-01-29 08:36:00,-10.2,-16.4,29.92,ENE,60,0.0,0.0,73,0.00,,,0.00,LWC V2.00 B2112,2013-01-29 17:36:00,
2013-01-29 08:41:00,-10.6,-16.8,29.92,NNW,336,0.0,0.0,73,0.00,,,0.00,LWC V2.00 B2112,2013-01-29 17:41:00,
2013-01-29 08:46:00,-11.1,-17.3,29.92,NW,304,0.0,0.0,73,0.00,,,0.00,LWC V2.00 B2112,2013-01-29 17:46:00,
2013-01-29 08:51:00,-11.3,-17.5,29.92,NW,304,0.0,0.0,73,0.00,,,0.00,LWC V2.00 B2112,2013-01-29 17:51:00,
2013-01-29 08:56:00,-11.6,-17.8,29.92,NW,304,0.0,0.0,73,0.00,,,0.00,LWC V2.00 B2112,2013-01-29 17:56:00,
2013-01-29 09:01:00,-11.8,-18.0,29.92,NW,304,0.0,0.0,73,0.00,,,0.00,LWC V2.00 B2112,2013-01-29 18:01:00,
2013-01-29 09:06:00,-12.0,-17.9,29.92,NW,304,0.0,0.0,74,0.00,,,0.00,LWC V2.00 B2112,2013-01-29 18:06:00,
2013-01-29 09:11:00,-12.0,-17.9,29.93,NW,304,0.0,0.0,74,0.00,,,0.00,LWC V2.00 B2112,2013-01-29 18:11:00,
2013-01-29 09:16:00,-12.2,-18.1,29.93,NW,304,0.0,0.0,74,0.00,,,0.00,LWC V2.00 B2112,2013-01-29 18:16:00,
2013-01-29 09:21:00,-12.3,-18.2,29.93,NW,304,0.0,0.0,74,0.00,,,0.00,LWC V2.00 B2112,2013-01-29 18:21:00,
2013-01-29 09:26:00,-12.5,-18.4,29.93,NW,304,0.0,0.0,74,0.00,,,0.00,LWC V2.00 B2112,2013-01-29 18:26:00,
2013-01-29 09:31:00,-12.5,-18.4,29.93,NW,304,0.0,0.0,74,0.00,,,0.00,LWC V2.00 B2112,2013-01-29 18:31:00,
2013-01-29 09:36:00,-12.7,-18.3,29.93,NW,304,0.0,0.0,75,0.00,,,0.00,LWC V2.00 B2112,2013-01-29 18:36:00,
2013-01-29 09:41:00,-12.5,-18.1,29.93,NW,304,0.0,0.0,75,0.00,,,0.00,LWC V2.00 B2112,2013-01-29 18:41:00,
2013-01-29 09:46:00,-12.3,-17.9,29.93,NW,304,0.0,0.0,75,0.00,,,0.00,LWC V2.00 B2112,2013-01-29 18:46:00,
2013-01-29 09:51:00,-12.4,-18.0,29.93,NW,304,0.0,0.0,75,0.00,,,0.00,LWC V2.00 B2112,2013-01-29 18:51:00,
2013-01-29 09:56:00,-12.5,-18.1,29.93,NW,304,0.0,0.0,75,0.00,,,0.00,LWC V2.00 B2112,2013-01-29 18:56:00,
2013-01-29 10:01:00,-12.6,-18.2,29.93,NW,304,0.0,0.0,75,0.00,,,0.00,LWC V2.00 B2112,2013-01-29 19:01:00,
2013-01-29 10:06:00,-12.8,-18.4,29.93,NW,304,0.0,0.0,75,0.00,,,0.00,LWC V2.00 B2112,2013-01-29 19:06:00,
2013-01-29 10:11:00,-12.8,-18.4,29.93,NW,304,0.0,0.0,75,0.00,,,0.00,LWC V2.00 B2112,2013-01-29 19:11:00,
2013-01-29 10:16:00,-13.0,-18.9,29.93,NW,304,0.0,0.0,74,0.00,,,0.00,LWC V2.00 B2112,2013-01-29 19:16:00,
2013-01-29 10:21:00,-12.7,-18.3,29.93,NW,304,0.0,0.0,75,0.00,,,0.00,LWC V2.00 B2112,2013-01-29 19:21:00,
2013-01-29 10:26:00,-12.8,-18.4,29.93,NW,304,0.0,0.0,75,0.00,,,0.00,LWC V2.00 B2112,2013-01-29 19:26:00,
2013-01-29 10:31:00,-12.7,-18.3,29.93,NW,304,0.0,0.0,75,0.00,,,0.00,LWC V2.00 B2112,2013-01-29 19:31:00,
2013-01-29 10:36:00,-12.5,-18.1,29.93,NW,304,0.0,0.0,75,0.00,,,0.00,LWC V2.00 B2112,2013-01-29 19:36:00,
2013-01-29 10:41:00,-12.7,-18.3,29.93,NW,304,0.0,0.0,75,0.00,,,0.00,LWC V2.00 B2112,2013-01-29 19:41:00,
2013-01-29 10:46:00,-12.7,-18.3,29.93,NW,304,0.0,0.0,75,0.00,,,0.00,LWC V2.00 B2112,2013-01-29 19:46:00,
2013-01-29 10:51:00,-12.8,-18.7,29.93,NW,304,0.0,0.0,74,0.00,,,0.00,LWC V2.00 B2112,2013-01-29 19:51:00,
2013-01-29 10:56:00,-12.8,-18.4,29.93,NW,304,0.0,0.0,75,0.00,,,0.00,LWC V2.00 B2112,2013-01-29 19:56:00,
2013-01-29 11:01:00,-12.6,-18.2,29.93,NW,304,0.0,0.0,75,0.00,,,0.00,LWC V2.00 B2112,2013-01-29 20:01:00,
2013-01-29 11:06:00,-12.3,-17.9,29.92,NW,304,0.0,0.0,75,0.00,,,0.00,LWC V2.00 B2112,2013-01-29 20:06:00,
2013-01-29 11:11:00,-12.0,-17.4,29.93,NW,304,0.0,0.0,76,0.00,,,0.00,LWC V2.00 B2112,2013-01-29 20:11:00,
2013-01-29 11:16:00,-11.8,-17.2,29.93,NW,304,0.0,0.0,76,0.00,,,0.00,LWC V2.00 B2112,2013-01-29 20:16:00,
2013-01-29 11:21:00,-11.6,-17.0,29.93,NW,304,0.0,0.0,76,0.00,,,0.00,LWC V2.00 B2112,2013-01-29 20:21:00,
2013-01-29 11:26:00,-11.4,-16.8,29.93,NW,304,0.0,0.0,76,0.00,,,0.00,LWC V2.00 B2112,2013-01-29 20:26:00,
2013-01-29 11:31:00,-11.1,-16.5,29.92,NW,304,0.0,0.0,76,0.00,,,0.00,LWC V2.00 B2112,2013-01-29 20:31:00,
2013-01-29 11:36:00,-10.9,-16.3,29.92,NW,304,0.0,0.0,76,0.00,,,0.00,LWC V2.00 B2112,2013-01-29 20:36:00,
2013-01-29 11:41:00,-10.5,-15.7,29.92,NW,304,0.0,0.0,77,0.00,,,0.00,LWC V2.00 B2112,2013-01-29 20:41:00,
2013-01-29 11:46:00,-10.2,-15.1,29.93,NW,304,0.0,0.0,78,0.00,,,0.00,LWC V2.00 B2112,2013-01-29 20:46:00,
2013-01-29 11:51:00,-9.9,-15.1,29.92,NW,304,0.0,0.0,77,0.00,,,0.00,LWC V2.00 B2112,2013-01-29 20:51:00,
2013-01-29 11:56:00,-9.7,-14.9,29.93,NW,304,0.0,0.0,77,0.00,,,0.00,LWC V2.00 B2112,2013-01-29 20:56:00,
2013-01-29 12:01:00,-9.5,-15.0,29.93,NW,304,0.0,0.0,76,0.00,,,0.00,LWC V2.00 B2112,2013-01-29 21:01:00,
2013-01-29 12:06:00,-9.3,-14.8,29.93,NW,304,0.0,0.0,76,0.00,,,0.00,LWC V2.00 B2112,2013-01-29 21:06:00,
2013-01-29 12:11:00,-9.4,-14.9,29.92,NW,304,0.0,0.0,76,0.00,,,0.00,LWC V2.00 B2112,2013-01-29 21:11:00,
2013-01-29 12:16:00,-9.3,-14.5,29.93,NW,304,0.0,0.0,77,0.00,,,0.00,LWC V2.00 B2112,2013-01-29 21:16:00,
2013-01-29 12:21:00,-9.1,-14.3,29.93,NW,304,0.0,0.0,77,0.00,,,0.00,LWC V2.00 B2112,2013-01-29 21:21:00,
2013-01-29 12:26:00,-9.0,-14.2,29.92,NW,304,0.0,0.0,77,0.00,,,0.00,LWC V2.00 B2112,2013-01-29 21:26:00,
2013-01-29 12:31:00,-8.8,-14.0,29.92,NE,50,0.0,0.0,77,0.00,,,0.00,LWC V2.00 B2112,2013-01-29 21:31:00,
2013-01-29 12:36:00,-8.5,-14.8,29.92,NE,48,0.0,0.0,73,0.00,,,0.00,LWC V2.00 B2112,2013-01-29 21:36:00,
2013-01-29 12:41:00,-8.2,-15.0,29.92,NE,49,0.0,0.0,71,0.00,,,0.00,LWC V2.00 B2112,2013-01-29 21:41:00,
2013-01-29 12:46:00,-8.1,-14.7,29.92,NE,48,0.0,0.0,72,0.00,,,0.00,LWC V2.00 B2112,2013-01-29 21:46:00,
2013-01-29 12:51:00,-8.0,-14.6,29.92,NE,49,0.0,0.0,72,0.00,,,0.00,LWC V2.00 B2112,2013-01-29 21:51:00,
2013-01-29 12:56:00,-7.9,-14.2,29.93,NE,48,0.0,0.0,73,0.00,,,0.00,LWC V2.00 B2112,2013-01-29 21:56:00,
2013-01-29 13:01:00,-7.8,-13.8,29.93,NE,48,0.0,0.0,74,0.00,,,0.00,LWC V2.00 B2112,2013-01-29 22:01:00,
2013-01-29 13:06:00,-7.7,-14.6,29.93,NE,48,0.0,0.0,71,0.00,,,0.00,LWC V2.00 B2112,2013-01-29 22:06:00,
2013-01-29 13:11:00,-7.5,-14.6,29.93,NE,49,0.0,0.0,70,0.00,,,0.00,LWC V2.00 B2112,2013-01-29 22:11:00,
2013-01-29 13:16:00,-7.4,-14.8,29.93,NE,49,0.0,0.0,69,0.00,,,0.00,LWC V2.00 B2112,2013-01-29 22:16:00,
2013-01-29 13:21:00,-7.5,-15.5,29.93,NE,47,0.0,0.0,67,0.00,,,0.00,LWC V2.00 B2112,2013-01-29 22:21:00,
2013-01-29 13:26:00,-7.6,-15.6,29.93,NE,46,0.0,0.0,67,0.00,,,0.00,LWC V2.00 B2112,2013-01-29 22:26:00,
2013-01-29 13:31:00,-7.9,-15.9,29.92,NE,45,0.0,0.0,67,0.00,,,0.00,LWC V2.00 B2112,2013-01-29 22:31:00,
2013-01-29 13:36:00,-8.2,-15.9,29.92,NE,46,0.0,0.0,68,0.00,,,0.00,LWC V2.00 B2112,2013-01-29 22:36:00,
2013-01-29 13:41:00,-8.3,-15.7,29.92,NE,45,0.0,0.0,69,0.00,,,0.00,LWC V2.00 B2112,2013-01-29 22:41:00,
2013-01-29 13:46:00,-8.3,-15.7,29.92,NE,45,0.0,0.0,69,0.00,,,0.00,LWC V2.00 B2112,2013-01-29 22:46:00,
2013-01-29 13:51:00,-8.2,-15.6,29.92,NE,42,0.0,0.0,69,0.00,,,0.00,LWC V2.00 B2112,2013-01-29 22:51:00,
2013-01-29 13:56:00,-8.0,-15.4,29.92,NE,42,0.0,0.0,69,0.00,,,0.00,LWC V2.00 B2112,2013-01-29 22:56:00,
2013-01-29 14:01:00,-7.8,-15.2,29.92,NE,42,0.0,0.0,69,0.00,,,0.00,LWC V2.00 B2112,2013-01-29 23:01:00,
2013-01-29 14:06:00,-7.6,-15.0,29.92,NE,42,0.0,0.0,69,0.00,,,0.00,LWC V2.00 B2112,2013-01-29 23:06:00,
2013-01-29 14:11:00,-7.5,-14.9,29.92,NE,42,0.0,0.0,69,0.00,,,0.00,LWC V2.00 B2112,2013-01-29 23:11:00,
2013-01-29 14:16:00,-7.3,-14.7,29.92,NE,42,0.0,0.0,69,0.00,,,0.00,LWC V2.00 B2112,2013-01-29 23:16:00,
2013-01-29 14:21:00,-7.3,-15.0,29.92,NE,44,0.0,0.0,68,0.00,,,0.00,LWC V2.00 B2112,2013-01-29 23:21:00,
2013-01-29 14:26:00,-7.4,-15.4,29.92,WNW,290,0.0,0.0,67,0.00,,,0.00,LWC V2.00 B2112,2013-01-29 23:26:00,
2013-01-29 14:31:00,-7.5,-15.2,29.92,WNW,290,0.0,0.0,68,0.00,,,0.00,LWC V2.00 B2112,2013-01-29 23:31:00,
2013-01-29 14:36:00,-7.7,-15.4,29.92,WNW,290,0.0,0.0,68,0.00,,,0.00,LWC V2.00 B2112,2013-01-29 23:36:00,
2013-01-29 14:41:00,-7.8,-15.2,29.92,WNW,291,0.0,0.0,69,0.00,,,0.00,LWC V2.00 B2112,2013-01-29 23:41:00,
2013-01-29 14:46:00,-8.0,-15.4,29.93,WNW,290,0.0,0.0,69,0.00,,,0.00,LWC V2.00 B2112,2013-01-29 23:46:00,
2013-01-29 14:51:00,-8.1,-15.2,29.93,WNW,290,0.0,0.0,70,0.00,,,0.00,LWC V2.00 B2112,2013-01-29 23:51:00,
2013-01-29 14:56:00,-8.1,-15.2,29.93,WNW,291,0.0,0.0,70,0.00,,,0.00,LWC V2.00 B2112,2013-01-29 23:56:00,
2013-01-29 15:01:00,-8.1,-14.9,29.93,WNW,291,0.0,0.0,71,0.00,,,0.00,LWC V2.00 B2112,2013-01-30 00:01:00,
2013-01-29 15:06:00,-8.1,-14.7,29.93,WNW,290,0.0,0.0,72,0.00,,,0.00,LWC V2.00 B2112,2013-01-30 00:06:00,
2013-01-29 15:11:00,-8.1,-14.7,29.93,WNW,291,0.0,0.0,72,0.00,,,0.00,LWC V2.00 B2112,2013-01-30 00:11:00,
2013-01-29 15:16:00,-7.9,-14.5,29.93,WNW,291,0.0,0.0,72,0.00,,,0.00,LWC V2.00 B2112,2013-01-30 00:16:00,
2013-01-29 15:21:00,-7.7,-14.3,29.93,WNW,291,0.0,0.0,72,0.00,,,0.00,LWC V2.00 B2112,2013-01-30 00:21:00,
2013-01-29 15:26:00,-7.6,-14.5,29.93,WNW,291,0.0,0.0,71,0.00,,,0.00,LWC V2.00 B2112,2013-01-30 00:26:00,
2013-01-29 15:31:00,-7.4,-14.3,29.93,WNW,290,0.0,0.0,71,0.00,,,0.00,LWC V2.00 B2112,2013-01-30 00:31:00,
2013-01-29 15:36:00,-7.4,-14.3,29.93,NNE,28,0.0,0.0,71,0.00,,,0.00,LWC V2.00 B2112,2013-01-30 00:36:00,
2013-01-29 15:41:00,-7.3,-14.5,29.92,NNE,28,0.0,0.0,70,0.00,,,0.00,LWC V2.00 B2112,2013-01-30 00:41:00,
2013-01-29 15:46:00,-7.4,-14.3,29.92,NE,42,0.0,0.0,71,0.00,,,0.00,LWC V2.00 B2112,2013-01-30 00:46:00,
2013-01-29 15:51:00,-7.4,-14.5,29.93,NE,42,0.0,0.0,70,0.00,,,0.00,LWC V2.00 B2112,2013-01-30 00:51:00,
2013-01-29 15:56:00,-7.5,-14.4,29.92,ENE,76,0.0,0.0,71,0.00,,,0.00,LWC V2.00 B2112,2013-01-30 00:56:00,
2013-01-29 16:01:00,-7.6,-14.5,29.93,ENE,76,0.0,0.0,71,0.00,,,0.00,LWC V2.00 B2112,2013-01-30 01:01:00,
2013-01-29 16:06:00,-7.8,-14.7,29.92,NW,310,0.0,0.0,71,0.00,,,0.00,LWC V2.00 B2112,2013-01-30 01:06:00,
2013-01-29 16:11:00,-8.0,-14.6,29.92,NW,309,0.0,0.0,72,0.00,,,0.00,LWC V2.00 B2112,2013-01-30 01:11:00,
2013-01-29 16:16:00,-8.3,-14.9,29.92,NW,310,0.0,0.0,72,0.00,,,0.00,LWC V2.00 B2112,2013-01-30 01:16:00,
2013-01-29 16:21:00,-8.5,-14.8,29.93,NW,309,0.0,0.0,73,0.00,,,0.00,LWC V2.00 B2112,2013-01-30 01:21:00,
2013-01-29 16:26:00,-8.5,-14.8,29.92,NW,310,0.0,0.0,73,0.00,,,0.00,LWC V2.00 B2112,2013-01-30 01:26:00,
2013-01-29 16:31:00,-8.5,-14.5,29.92,NW,310,0.0,0.0,74,0.00,,,0.00,LWC V2.00 B2112,2013-01-30 01:31:00,
2013-01-29 16:36:00,-8.3,-14.3,29.92,NW,310,0.0,0.0,74,0.00,,,0.00,LWC V2.00 B2112,2013-01-30 01:36:00,
2013-01-29 16:41:00,-8.1,-13.9,29.93,NW,310,0.0,0.0,75,0.00,,,0.00,LWC V2.00 B2112,2013-01-30 01:41:00,
2013-01-29 16:46:00,-7.9,-13.9,29.92,NW,310,0.0,0.0,74,0.00,,,0.00,LWC V2.00 B2112,2013-01-30 01:46:00,
2013-01-29 16:51:00,-7.7,-14.0,29.92,NW,315,0.0,0.0,73,0.00,,,0.00,LWC V2.00 B2112,2013-01-30 01:51:00,
2013-01-29 16:56:00,-7.6,-14.2,29.92,NNE,32,0.0,0.0,72,0.00,,,0.00,LWC V2.00 B2112,2013-01-30 01:56:00,
2013-01-29 17:01:00,-7.5,-14.1,29.93,NNE,32,0.0,0.0,72,0.00,,,0.00,LWC V2.00 B2112,2013-01-30 02:01:00,
2013-01-29 17:06:00,-7.4,-14.0,29.93,NNE,32,0.0,0.0,72,0.00,,,0.00,LWC V2.00 B2112,2013-01-30 02:06:00,
2013-01-29 17:11:00,-7.4,-14.0,29.93,NNE,32,0.0,0.0,72,0.00,,,0.00,LWC V2.00 B2112,2013-01-30 02:11:00,
2013-01-29 17:16:00,-7.4,-13.7,29.93,NNE,32,0.0,0.0,73,0.00,,,0.00,LWC V2.00 B2112,2013-01-30 02:16:00,
2013-01-29 17:21:00,-7.4,-14.0,29.93,NNE,32,0.0,0.0,72,0.00,,,0.00,LWC V2.00 B2112,2013-01-30 02:21:00,
2013-01-29 17:26:00,-7.4,-13.7,29.93,NNE,32,0.0,0.0,73,0.00,,,0.00,LWC V2.00 B2112,2013-01-30 02:26:00,
2013-01-29 17:31:00,-7.4,-14.0,29.93,NNE,32,0.0,0.0,72,0.00,,,0.00,LWC V2.00 B2112,2013-01-30 02:31:00,
2013-01-29 17:36:00,-7.4,-13.7,29.93,NNE,26,0.0,0.0,73,0.00,,,0.00,LWC V2.00 B2112,2013-01-30 02:36:00,
2013-01-29 17:41:00,-7.4,-13.7,29.92,NNE,26,0.0,0.0,73,0.00,,,0.00,LWC V2.00 B2112,2013-01-30 02:41:00,
2013-01-29 17:46:00,-7.3,-13.4,29.93,NNE,26,0.0,0.0,74,0.00,,,0.00,LWC V2.00 B2112,2013-01-30 02:46:00,
2013-01-29 17:51:00,-7.2,-13.5,29.92,NNE,26,0.0,0.0,73,0.00,,,0.00,LWC V2.00 B2112,2013-01-30 02:51:00,
2013-01-29 17:56:00,-7.1,-13.4,29.92,NNE,26,0.0,0.0,73,0.00,,,0.00,LWC V2.00 B2112,2013-01-30 02:56:00,
2013-01-29 18:01:00,-7.1,-13.4,29.92,NNE,26,0.0,0.0,73,0.00,,,0.00,LWC V2.00 B2112,2013-01-30 03:01:00,
2013-01-29 18:06:00,-7.1,-13.4,29.93,NNE,26,0.0,0.0,73,0.00,,,0.00,LWC V2.00 B2112,2013-01-30 03:06:00,
2013-01-29 18:11:00,-7.0,-13.6,29.92,NNE,26,0.0,0.0,72,0.00,,,0.00,LWC V2.00 B2112,2013-01-30 03:11:00,
2013-01-29 18:16:00,-7.0,-13.3,29.92,NNE,26,0.0,0.0,73,0.00,,,0.00,LWC V2.00 B2112,2013-01-30 03:16:00,
2013-01-29 18:21:00,-7.0,-13.3,29.92,NNE,26,0.0,0.0,73,0.00,,,0.00,LWC V2.00 B2112,2013-01-30 03:21:00,
2013-01-29 18:26:00,-7.0,-13.3,29.92,NE,37,0.0,0.0,73,0.00,,,0.00,LWC V2.00 B2112,2013-01-30 03:26:00,
2013-01-29 18:31:00,-7.0,-13.3,29.91,NE,37,0.0,0.0,73,0.00,,,0.00,LWC V2.00 B2112,2013-01-30 03:31:00,
2013-01-29 18:36:00,-7.0,-13.1,29.91,NE,38,0.0,0.0,74,0.00,,,0.00,LWC V2.00 B2112,2013-01-30 03:36:00,
2013-01-29 18:41:00,-7.0,-13.1,29.91,NE,38,0.0,0.0,74,0.00,,,0.00,LWC V2.00 B2112,2013-01-30 03:41:00,
2013-01-29 18:46:00,-7.1,-12.9,29.92,NE,37,0.0,0.0,75,0.00,,,0.00,LWC V2.00 B2112,2013-01-30 03:46:00,
2013-01-29 18:51:00,-7.1,-12.6,29.91,NE,38,0.0,0.0,76,0.00,,,0.00,LWC V2.00 B2112,2013-01-30 03:51:00,
2013-01-29 18:56:00,-7.1,-12.6,29.92,NE,37,0.0,0.0,76,0.00,,,0.00,LWC V2.00 B2112,2013-01-30 03:56:00,
2013-01-29 19:01:00,-7.1,-12.4,29.92,NE,37,0.0,0.0,77,0.00,,,0.00,LWC V2.00 B2112,2013-01-30 04:01:00,
2013-01-29 19:06:00,-7.2,-12.5,29.92,NE,38,0.0,0.0,77,0.00,,,0.00,LWC V2.00 B2112,2013-01-30 04:06:00,
2013-01-29 19:11:00,-7.2,-12.2,29.92,NE,37,0.0,0.0,78,0.00,,,0.00,LWC V2.00 B2112,2013-01-30 04:11:00,
2013-01-29 19:16:00,-7.2,-12.2,29.91,NE,38,0.0,0.0,78,0.00,,,0.00,LWC V2.00 B2112,2013-01-30 04:16:00,
2013-01-29 19:21:00,-7.2,-12.2,29.92,NE,37,0.0,0.0,78,0.00,,,0.00,LWC V2.00 B2112,2013-01-30 04:21:00,
2013-01-29 19:26:00,-7.2,-12.2,29.91,NE,38,0.0,0.0,78,0.00,,,0.00,LWC V2.00 B2112,2013-01-30 04:26:00,
2013-01-29 19:31:00,-7.2,-12.2,29.92,NE,38,0.0,0.0,78,0.00,,,0.00,LWC V2.00 B2112,2013-01-30 04:31:00,
2013-01-29 19:36:00,-7.2,-12.0,29.91,NE,37,0.0,0.0,79,0.00,,,0.00,LWC V2.00 B2112,2013-01-30 04:36:00,
2013-01-29 19:41:00,-7.3,-12.1,29.91,NE,37,0.0,0.0,79,0.00,,,0.00,LWC V2.00 B2112,2013-01-30 04:41:00,
2013-01-29 19:46:00,-7.4,-12.2,29.91,NE,38,0.0,0.0,79,0.00,,,0.00,LWC V2.00 B2112,2013-01-30 04:46:00,
2013-01-29 19:51:00,-7.5,-12.3,29.91,NE,38,0.0,0.0,79,0.00,,,0.00,LWC V2.00 B2112,2013-01-30 04:51:00,
2013-01-29 19:56:00,-7.5,-12.0,29.91,NE,37,0.0,0.0,80,0.00,,,0.00,LWC V2.00 B2112,2013-01-30 04:56:00,
2013-01-29 20:01:00,-7.4,-11.9,29.91,NE,37,0.0,0.0,80,0.00,,,0.00,LWC V2.00 B2112,2013-01-30 05:01:00,
2013-01-29 20:06:00,-7.4,-11.9,29.90,NE,38,0.0,0.0,80,0.00,,,0.00,LWC V2.00 B2112,2013-01-30 05:06:00,
2013-01-29 20:11:00,-7.4,-11.9,29.91,NE,38,0.0,0.0,80,0.00,,,0.00,LWC V2.00 B2112,2013-01-30 05:11:00,
2013-01-29 20:16:00,-7.5,-12.0,29.91,NE,38,0.0,0.0,80,0.00,,,0.00,LWC V2.00 B2112,2013-01-30 05:16:00,
2013-01-29 20:21:00,-7.4,-11.9,29.90,NE,37,0.0,0.0,80,0.00,,,0.00,LWC V2.00 B2112,2013-01-30 05:21:00,
2013-01-29 20:26:00,-7.5,-12.0,29.91,NE,38,0.0,0.0,80,0.00,,,0.00,LWC V2.00 B2112,2013-01-30 05:26:00,
2013-01-29 20:31:00,-7.6,-12.1,29.91,NE,38,0.0,0.0,80,0.00,,,0.00,LWC V2.00 B2112,2013-01-30 05:31:00,
2013-01-29 20:36:00,-7.6,-12.1,29.91,NE,38,0.0,0.0,80,0.00,,,0.00,LWC V2.00 B2112,2013-01-30 05:36:00,
2013-01-29 20:41:00,-7.7,-12.2,29.91,NE,37,0.0,0.0,80,0.00,,,0.00,LWC V2.00 B2112,2013-01-30 05:41:00,
2013-01-29 20:46:00,-7.7,-12.2,29.91,NE,36,0.0,0.0,80,0.00,,,0.00,LWC V2.00 B2112,2013-01-30 05:46:00,
2013-01-29 20:51:00,-7.9,-12.4,29.91,NE,36,0.0,0.0,80,0.00,,,0.00,LWC V2.00 B2112,2013-01-30 05:51:00,
2013-01-29 20:56:00,-8.0,-12.5,29.91,NE,37,0.0,0.0,80,0.00,,,0.00,LWC V2.00 B2112,2013-01-30 05:56:00,
2013-01-29 21:01:00,-8.0,-12.5,29.91,NE,36,0.0,0.0,80,0.00,,,0.00,LWC V2.00 B2112,2013-01-30 06:01:00,
2013-01-29 21:06:00,-7.9,-12.4,29.91,NE,36,0.0,0.0,80,0.00,,,0.00,LWC V2.00 B2112,2013-01-30 06:06:00,
2013-01-29 21:11:00,-7.7,-12.2,29.91,NE,37,0.0,0.0,80,0.00,,,0.00,LWC V2.00 B2112,2013-01-30 06:11:00,
2013-01-29 21:16:00,-7.7,-12.2,29.91,NE,37,0.0,0.0,80,0.00,,,0.00,LWC V2.00 B2112,2013-01-30 06:16:00,
2013-01-29 21:21:00,-7.7,-12.4,29.91,NE,36,0.0,0.0,79,0.00,,,0.00,LWC V2.00 B2112,2013-01-30 06:21:00,
2013-01-29 21:26:00,-7.9,-12.6,29.91,NE,37,0.0,0.0,79,0.00,,,0.00,LWC V2.00 B2112,2013-01-30 06:26:00,
2013-01-29 21:31:00,-8.0,-12.7,29.91,NE,36,0.0,0.0,79,0.00,,,0.00,LWC V2.00 B2112,2013-01-30 06:31:00,
2013-01-29 21:36:00,-8.1,-12.6,29.91,NE,36,0.0,0.0,80,0.00,,,0.00,LWC V2.00 B2112,2013-01-30 06:36:00,
2013-01-29 21:41:00,-8.0,-12.5,29.91,NE,37,0.0,0.0,80,0.00,,,0.00,LWC V2.00 B2112,2013-01-30 06:41:00,
2013-01-29 21:46:00,-7.8,-12.3,29.91,NE,36,0.0,0.0,80,0.00,,,0.00,LWC V2.00 B2112,2013-01-30 06:46:00,
2013-01-29 21:51:00,-7.7,-12.2,29.92,NE,36,0.0,0.0,80,0.00,,,0.00,LWC V2.00 B2112,2013-01-30 06:51:00,
2013-01-29 21:56:00,-7.6,-12.1,29.92,NE,37,0.0,0.0,80,0.00,,,0.00,LWC V2.00 B2112,2013-01-30 06:56:00,
2013-01-29 22:01:00,-7.7,-12.2,29.91,NE,36,0.0,0.0,80,0.00,,,0.00,LWC V2.00 B2112,2013-01-30 07:01:00,
2013-01-29 22:06:00,-7.6,-12.1,29.92,NE,36,0.0,0.0,80,0.00,,,0.00,LWC V2.00 B2112,2013-01-30 07:06:00,
2013-01-29 22:11:00,-7.4,-11.9,29.92,NE,37,0.0,0.0,80,0.00,,,0.00,LWC V2.00 B2112,2013-01-30 07:11:00,
2013-01-29 22:16:00,-7.3,-11.8,29.92,NE,36,0.0,0.0,80,0.00,,,0.00,LWC V2.00 B2112,2013-01-30 07:16:00,
2013-01-29 22:21:00,-7.3,-11.8,29.92,NE,36,0.0,0.0,80,0.00,,,0.00,LWC V2.00 B2112,2013-01-30 07:21:00,
2013-01-29 22:26:00,-7.4,-11.9,29.91,NE,40,0.0,0.0,80,0.00,,,0.00,LWC V2.00 B2112,2013-01-30 07:26:00,
2013-01-29 22:31:00,-7.5,-12.0,29.91,NE,40,0.0,0.0,80,0.00,,,0.00,LWC V2.00 B2112,2013-01-30 07:31:00,
2013-01-29 22:36:00,-7.5,-12.0,29.91,NE,40,0.0,0.0,80,0.00,,,0.00,LWC V2.00 B2112,2013-01-30 07:36:00,
2013-01-29 22:56:00,-7.2,-11.7,29.91,NE,40,0.0,0.0,80,0.00,,,0.00,LWC V2.00 B2112,2013-01-30 07:56:00,
2013-01-29 23:01:00,-7.1,-11.9,29.91,NE,40,0.0,0.0,79,0.00,,,0.00,LWC V2.00 B2112,2013-01-30 08:01:00,
2013-01-29 23:06:00,-7.0,-11.8,29.91,NE,40,0.0,0.0,79,0.00,,,0.00,LWC V2.00 B2112,2013-01-30 08:06:00,
2013-01-29 23:11:00,-6.9,-11.7,29.91,NE,40,0.0,0.0,79,0.00,,,0.00,LWC V2.00 B2112,2013-01-30 08:11:00,
2013-01-29 23:16:00,-6.8,-11.6,29.91,NE,40,0.0,0.0,79,0.00,,,0.00,LWC V2.00 B2112,2013-01-30 08:16:00,
2013-01-29 23:21:00,-6.6,-11.4,29.91,NE,40,0.0,0.0,79,0.00,,,0.00,LWC V2.00 B2112,2013-01-30 08:21:00,
2013-01-29 23:26:00,-6.5,-11.3,29.91,NE,40,0.0,0.0,79,0.00,,,0.00,LWC V2.00 B2112,2013-01-30 08:26:00,
2013-01-29 23:31:00,-6.4,-11.2,29.91,NE,40,0.0,0.0,79,0.00,,,0.00,LWC V2.00 B2112,2013-01-30 08:31:00,
2013-01-29 23:36:00,-6.3,-11.1,29.91,NE,40,0.0,0.0,79,0.00,,,0.00,LWC V2.00 B2112,2013-01-30 08:36:00,
2013-01-29 23:41:00,-6.3,-11.1,29.91,NE,40,0.0,0.0,79,0.00,,,0.00,LWC V2.00 B2112,2013-01-30 08:41:00,
2013-01-29 23:46:00,-6.3,-11.1,29.92,NE,40,0.0,0.0,79,0.00,,,0.00,LWC V2.00 B2112,2013-01-30 08:46:00,
2013-01-29 23:51:00,-6.3,-11.1,29.91,NE,40,0.0,0.0,79,0.00,,,0.00,LWC V2.00 B2112,2013-01-30 08:51:00,
2013-01-29 23:56:00,-6.2,-11.0,29.92,NE,40,0.0,0.0,79,0.00,,,0.00,LWC V2.00 B2112,2013-01-30 08:56:00,